Simultaneous Nadir Overpasses (SNOs) Predictions

Prediction of SNOs between NOAA-19 and TERRA Satellite Orbit:

Table of predicted SNOs for the next 14.0 days since TLE Epoch: 12/5/2015
Index Date (NOAA-19) Time (NOAA-19) Lat,Lon (NOAA-19) SZA (NOAA-19 ) Date (TERRA) Time (TERRA) Lat,Lon (TERRA) SZA (TERRA ) Distance(km) Time Diff (sec)
1 12/06/2015 21:46:20 -72.87, 38.66 84.57 12/06/2015 21:46:53 -72.88, 38.66 84.56 1.28 33
2 12/06/2015 22:37:18 72.80,-153.95 95.38 12/06/2015 22:36:20 72.79,-153.87 95.36 2.84 58
3 12/09/2015 03:20:31 72.87, 135.15 95.67 12/09/2015 03:20:34 72.87, 135.22 95.67 2.05 3
4 12/09/2015 04:11:21 -72.19, -56.18 84.95 12/09/2015 04:10:13 -72.27, -58.27 84.96 71.20 68
5 12/11/2015 08:03:44 72.94, 64.24 95.93 12/11/2015 08:04:48 72.94, 64.29 95.94 1.65 64
6 12/11/2015 08:54:46 -72.83,-128.30 84.16 12/11/2015 08:54:18 -72.82,-128.30 84.18 1.22 28
7 12/13/2015 13:37:59 -72.89, 160.83 83.96 12/13/2015 13:38:32 -72.89, 160.77 83.95 2.04 33
8 12/13/2015 14:28:55 72.80, -31.71 95.97 12/13/2015 14:27:59 72.79, -31.78 95.95 2.33 56
9 12/15/2015 18:21:28 -73.73, 88.10 83.04 12/15/2015 18:22:33 -73.63, 91.21 83.05 97.95 65
10 12/15/2015 19:12:08 72.88,-102.64 96.16 12/15/2015 19:12:12 72.90,-102.63 96.18 2.50 4
11 12/15/2015 20:03:00 -72.23, 65.95 84.44 12/15/2015 20:01:52 -72.26, 63.80 84.50 72.97 68
12 12/17/2015 23:55:21 72.96,-173.58 96.33 12/17/2015 23:56:26 72.95,-173.60 96.32 1.79 65
13 12/18/2015 00:46:24 -72.85, -6.11
